SNEZKA Weather Reports


time (UTC)temp
C
wind
direction
speed
KPH
gust
KPH
rain 1hr
cm
rain 24hr
cm
rain mn
cm
humidity
%
barometer
mb
20260902042300 7 180 19.3 0.0 0.00 0.00 0.00 93
20260902031957 7 210 19.3 0.0 0.00 0.00 0.00 93
20260902022157 7 240 29.0 0.0 0.00 0.00 0.00 93
20260902012158 7 210 22.5 38.6 0.00 0.00 0.00 93
20260902001958 7 240 38.6 0.0 0.00 0.00 0.00 93
20260901232142 7 240 41.8 0.0 0.00 0.00 0.00 93
20260901222259 7 230 35.4 0.0 0.00 0.00 0.00 87
20260901211958 7 230 32.2 0.0 0.00 0.00 0.00 93
20260901202158 7 220 29.0 0.0 0.00 0.00 0.00 93
20260901192158 7 210 35.4 53.1 0.00 0.00 0.00 99
20260901181957 7 210 35.4 0.0 0.00 0.00 0.00 93
20260901172158 7 240 25.7 46.7 0.00 0.00 0.00 93
20260901162300 7 240 32.2 49.9 0.00 0.00 0.00 93
20260901151958 8 250 46.7 61.2 0.00 0.00 0.00 87
20260901142158 8 240 38.6 0.0 0.00 0.00 0.00 87
20260901132058 7 240 46.7 0.0 0.00 0.00 0.00 87
20260901121958 7 250 53.1 72.4 0.00 0.00 0.00 93
20260901112059 7 260 38.6 53.1 0.00 0.00 0.00 99
20260901102258 6 260 49.9 72.4 0.00 0.00 0.00 99
20260901091958 6 250 69.2 0.0 0.00 0.00 0.00 99
20260901082201 6 240 64.4 86.9 0.00 0.00 0.00 99
20260901072157 6 230 64.4 95.0 0.00 0.00 0.00 99
20260901061957 5 230 72.4 96.6 0.00 0.00 0.00 99
20260901052041 5 230 83.7 99.8 0.00 0.00 0.00 99